Location: *
(51.8167°N, 12.5000°E)
Time: 20:03:15
(UTC+00:00)

Nadezhda 1 Rocket - Pass Details

Date: 16 September 2019
Orbit: 942 x 1005 km, 83.0° (Epoch: 16 October)

Event Time Altitude Azimuth Distance (km) Brightness Sun altitude
Rises 18:40:58 0° 186° (S) 3,599 6.8 -12.5°
Reaches altitude 10° 18:43:27 10° 186° (S) 2,656 6.1 -12.9°
Maximum altitude 18:49:31 87° 99° (E) 952 3.9 -13.7°
Drops below altitude 10° 18:55:38 10° 11° (N) 2,679 6.5 -14.6°
Sets 18:58:08 0° 11° (N) 3,634 7.2 -15.0°
